EN

Hourly Weather Zaranj

Today, 25 November, Wednesday

Time Temperature Precipitation Wind Pressure Humidity
00:00 +9°C° 0 mm 7 mps 722 mmHg 30%
01:00 +9°C° 0 mm 7 mps 722 mmHg 33%
02:00 +8°C° 0 mm 6 mps 722 mmHg 34%
03:00 +8°C° 0 mm 6 mps 722 mmHg 36%
04:00 +7°C° 0 mm 6 mps 722 mmHg 37%
05:00 +7°C° 0 mm 5 mps 723 mmHg 37%
06:00 +7°C° 0 mm 5 mps 723 mmHg 38%
07:00 +7°C° 0 mm 5 mps 723 mmHg 38%
08:00 +9°C° 0 mm 5 mps 724 mmHg 35%
09:00 +10°C° 0 mm 5 mps 724 mmHg 32%
10:00 +13°C° 0 mm 5 mps 725 mmHg 28%
11:00 +14°C° 0 mm 5 mps 724 mmHg 27%
12:00 +15°C° 0 mm 4 mps 724 mmHg 25%
13:00 +17°C° 0 mm 3 mps 723 mmHg 24%
14:00 +17°C° 0 mm 3 mps 723 mmHg 24%
15:00 +17°C° 0 mm 2 mps 723 mmHg 24%
16:00 +17°C° 0 mm 2 mps 722 mmHg 24%
17:00 +15°C° 0 mm 1 mps 723 mmHg 28%
18:00 +14°C° 0 mm 1 mps 723 mmHg 31%
19:00 +12°C° 0 mm 1 mps 723 mmHg 34%
20:00 +12°C° 0 mm 1 mps 723 mmHg 35%
21:00 +12°C° 0 mm 1 mps 724 mmHg 35%
22:00 +11°C° 0 mm 1 mps 724 mmHg 36%
23:00 +10°C° 0 mm 2 mps 724 mmHg 36%

Tomorrow, 26 November, Thursday

Time Temperature Precipitation Wind Pressure Humidity
00:00 +10°C° 0 mm 2 mps 723 mmHg 37%
01:00 +9°C° 0 mm 2 mps 723 mmHg 38%
02:00 +9°C° 0 mm 2 mps 723 mmHg 38%
03:00 +9°C° 0 mm 1 mps 723 mmHg 39%
04:00 +9°C° 0 mm 1 mps 723 mmHg 40%
05:00 +8°C° 0 mm 2 mps 723 mmHg 39%
06:00 +8°C° 0 mm 2 mps 724 mmHg 39%
07:00 +8°C° 0 mm 2 mps 724 mmHg 38%
08:00 +10°C° 0 mm 2 mps 724 mmHg 33%
09:00 +13°C° 0 mm 2 mps 725 mmHg 29%
10:00 +15°C° 0 mm 2 mps 725 mmHg 24%
11:00 +16°C° 0 mm 2 mps 725 mmHg 21%
12:00 +17°C° 0 mm 2 mps 724 mmHg 19%
13:00 +18°C° 0 mm 2 mps 723 mmHg 16%
14:00 +19°C° 0 mm 2 mps 723 mmHg 15%
15:00 +19°C° 0 mm 2 mps 723 mmHg 15%
16:00 +19°C° 0 mm 2 mps 723 mmHg 14%
17:00 +17°C° 0 mm 2 mps 723 mmHg 16%
18:00 +16°C° 0 mm 3 mps 723 mmHg 19%
19:00 +13°C° 0 mm 3 mps 724 mmHg 21%
20:00 +13°C° 0 mm 3 mps 724 mmHg 21%
21:00 +12°C° 0 mm 3 mps 724 mmHg 22%
22:00 +13°C° 0 mm 2 mps 724 mmHg 22%
23:00 +12°C° 0 mm 2 mps 723 mmHg 22%

Day after tomorrow, 27 November, Friday

Time Temperature Precipitation Wind Pressure Humidity
00:00 +12°C° 0 mm 2 mps 723 mmHg 22%
01:00 +10°C° 0 mm 2 mps 723 mmHg 21%
02:00 +10°C° 0 mm 2 mps 723 mmHg 22%
03:00 +10°C° 0 mm 2 mps 723 mmHg 23%
04:00 +9°C° 0 mm 2 mps 722 mmHg 23%
05:00 +9°C° 0 mm 2 mps 723 mmHg 24%
06:00 +9°C° 0 mm 2 mps 723 mmHg 24%
07:00 +9°C° 0 mm 2 mps 724 mmHg 25%
08:00 +12°C° 0 mm 3 mps 724 mmHg 23%
09:00 +14°C° 0 mm 3 mps 724 mmHg 21%
10:00 +17°C° 0 mm 3 mps 725 mmHg 19%
11:00 +18°C° 0 mm 3 mps 725 mmHg 17%
12:00 +20°C° 0 mm 3 mps 724 mmHg 16%
13:00 +21°C° 0 mm 3 mps 724 mmHg 14%
14:00 +20°C° 0 mm 3 mps 724 mmHg 14%
15:00 +20°C° 0 mm 2 mps 723 mmHg 15%
16:00 +20°C° 0 mm 2 mps 723 mmHg 15%
17:00 +19°C° 0 mm 2 mps 724 mmHg 17%
18:00 +17°C° 0 mm 2 mps 724 mmHg 19%
19:00 +16°C° 0 mm 2 mps 724 mmHg 21%
20:00 +16°C° 0 mm 2 mps 724 mmHg 22%
21:00 +16°C° 0 mm 2 mps 725 mmHg 22%
22:00 +15°C° 0 mm 1 mps 725 mmHg 23%
23:00 +15°C° 0 mm 1 mps 725 mmHg 23%

28 November, Saturday

Time Temperature Precipitation Wind Pressure Humidity
00:00 +15°C° 0 mm 2 mps 725 mmHg 23%
01:00 +15°C° 0 mm 2 mps 725 mmHg 23%
02:00 +15°C° 0 mm 2 mps 725 mmHg 24%
03:00 +14°C° 0 mm 3 mps 725 mmHg 25%
04:00 +13°C° 0 mm 3 mps 725 mmHg 26%
05:00 +13°C° 0 mm 5 mps 725 mmHg 31%
06:00 +11°C° 0 mm 7 mps 726 mmHg 37%
07:00 +10°C° 0 mm 9 mps 726 mmHg 42%
08:00 +11°C° 0 mm 10 mps 726 mmHg 42%
09:00 +12°C° 0 mm 10 mps 727 mmHg 41%
10:00 +13°C° 0 mm 11 mps 727 mmHg 40%
11:00 +13°C° 0 mm 11 mps 727 mmHg 39%
12:00 +14°C° 0 mm 11 mps 726 mmHg 38%
13:00 +16°C° 0 mm 11 mps 726 mmHg 36%
14:00 +16°C° 0 mm 11 mps 725 mmHg 37%
15:00 +16°C° 0 mm 10 mps 725 mmHg 38%
16:00 +16°C° 0 mm 10 mps 725 mmHg 38%
17:00 +15°C° 0 mm 9 mps 725 mmHg 42%
18:00 +13°C° 0 mm 9 mps 725 mmHg 46%
19:00 +12°C° 0 mm 9 mps 726 mmHg 49%
20:00 +11°C° 0 mm 8 mps 726 mmHg 52%
21:00 +10°C° 0 mm 8 mps 726 mmHg 54%
22:00 +10°C° 0 mm 8 mps 726 mmHg 57%
23:00 +9°C° 0 mm 7 mps 726 mmHg 58%

29 November, Sunday

Time Temperature Precipitation Wind Pressure Humidity
00:00 +9°C° 0 mm 7 mps 725 mmHg 60%
01:00 +9°C° 0 mm 7 mps 725 mmHg 62%
02:00 +8°C° 0 mm 7 mps 725 mmHg 63%
03:00 +8°C° 0 mm 7 mps 725 mmHg 64%
04:00 +8°C° 0 mm 7 mps 725 mmHg 65%
05:00 +7°C° 0 mm 6 mps 725 mmHg 65%
06:00 +7°C° 0 mm 6 mps 725 mmHg 66%
07:00 +7°C° 0 mm 6 mps 725 mmHg 67%
08:00 +8°C° 0 mm 5 mps 725 mmHg 61%
09:00 +10°C° 0 mm 5 mps 725 mmHg 55%
10:00 +12°C° 0 mm 5 mps 726 mmHg 49%
11:00 +13°C° 0 mm 5 mps 725 mmHg 45%
12:00 +14°C° 0 mm 4 mps 724 mmHg 42%
13:00 +17°C° 0 mm 4 mps 723 mmHg 38%
14:00 +17°C° 0 mm 3 mps 723 mmHg 37%
15:00 +17°C° 0 mm 2 mps 723 mmHg 36%
16:00 +17°C° 0 mm 2 mps 723 mmHg 35%
17:00 +16°C° 0 mm 1 mps 723 mmHg 39%
18:00 +14°C° 0 mm 1 mps 723 mmHg 43%
19:00 +12°C° 0 mm 0 mps 723 mmHg 47%
20:00 +12°C° 0 mm 0 mps 723 mmHg 47%
21:00 +11°C° 0 mm 0 mps 723 mmHg 48%
22:00 +12°C° 0 mm 1 mps 723 mmHg 49%
23:00 +12°C° 0 mm 1 mps 722 mmHg 49%

30 November, Monday

Time Temperature Precipitation Wind Pressure Humidity
00:00 +12°C° 0 mm 1 mps 722 mmHg 48%
01:00 +12°C° 0 mm 1 mps 722 mmHg 48%
02:00 +12°C° 0 mm 2 mps 722 mmHg 49%
03:00 +12°C° 0 mm 2 mps 721 mmHg 49%
04:00 +12°C° 0 mm 2 mps 721 mmHg 50%
05:00 +11°C° 0 mm 1 mps 721 mmHg 51%
06:00 +11°C° 0 mm 1 mps 721 mmHg 53%
07:00 +9°C° 0 mm 0 mps 721 mmHg 54%
08:00 +11°C° 0 mm 0 mps 722 mmHg 48%
09:00 +13°C° 0 mm 0 mps 722 mmHg 42%
10:00 +15°C° 0 mm 0 mps 722 mmHg 36%
11:00 +16°C° 0 mm 0 mps 722 mmHg 33%
12:00 +17°C° 0 mm 0 mps 721 mmHg 30%
13:00 +18°C° 0 mm 0 mps 721 mmHg 27%
14:00 +19°C° 0 mm 0 mps 720 mmHg 27%
15:00 +19°C° 0 mm 0 mps 720 mmHg 26%
16:00 +21°C° 0 mm 1 mps 720 mmHg 26%
17:00 +19°C° 0 mm 1 mps 720 mmHg 29%
18:00 +18°C° 0 mm 1 mps 720 mmHg 32%
19:00 +15°C° 0 mm 2 mps 720 mmHg 35%
20:00 +15°C° 0 mm 1 mps 720 mmHg 37%
21:00 +14°C° 0 mm 1 mps 720 mmHg 38%
22:00 +13°C° 0 mm 1 mps 720 mmHg 40%
23:00 +12°C° 0 mm 0 mps 719 mmHg 41%
Show more

We Need Your Consent

Meteoprog and our Service Providers may store and access personal data such as cookies, device identifiers or other similar technologies on your device and process such data to personalise content and ads, as well as provide social media features and to analyse the traffic.

  • Store and/or access information on your device

    Cookies, device identifiers or other information can be stored or accessed on your device for the purposes indicated above.

  • Personalised ads and content, ad and content measurement, audience insights, and products development

    Ads and content can be personalised based on a profile. More data can be added to better personalise ads and content. Ad and content performance can be measured. Insights about the audience who saw the ads and content can be derived. Such data can be used to develop or improve user’s experience, systems and software.

By clicking ‘I Agree’ you will allow the use of indicated cookies, device identifiers, web beacons or other similar technologies. Your settings can be changed in the browser on your device.

For certain purposes, legitimate interests may be relied on, rather than consent. You can read more about this in our Privacy and Cookie Policy.